COSMOS 627 DEB, 45504

Orbit data source: Space-Track

COSMOS 627 DEB, 45504 is space debris in LEO originally from a launch on Sat, 29 Dec 1973 UTC launched from the Plesetsk Missile And Space Complex (PKMTR). Debris objects in space refer to the collection of defunct objects orbiting the Earth. Examples of debris include non-operational satellites, rocket bodies, and fragments generated from explosions, collisions, or faulty payload assembly.

Loading next visibility...
Identifier
45504, 1973-109C
Orbit
LEO
Country
Flag of CISCIS
Related business
Manufacturer
Unknown
Mission
Spacecraft
Bus & Motor
Unknown
Mass
Unknown
Launch date (UTC)
1973-12-29 (52 years ago)
Launch vehicle
Unknown
Launch site
Plesetsk Missile And Space Complex (PKMTR)
Object type
Payload
Rocket body
Debris
Shape & HBR
Unknown shape, 0.1 m
Radar Cross Section
Medium (>0.1 m² and <1 m²)

Expand to show TLE details & history
Last TLE update: 4 days ago

TLE from 4 days ago
0 COSMOS 627 DEB
1 45504U 73109C   26169.57918039  .00000204  00000-0  19934-3 0  9999
2 45504  82.9530 117.2293 0030737 323.6947  36.2123 13.74410628624067
Epoch: 2026-06-18T13:54Z
TLE epoch observation values (Epoch: 2026-06-18T13:54:01.185Z)
Latitude
-0.00001°
Longitude
1.90388°
Altitude
968.441 km
Speed
7.377 km/s
True Right ascension
07h 48m 55s
True Declination
0° 00' 00"
Sunlit
Object was in daylight at epoch
Visualization orbit readout
Latitude
Unknown
Longitude
Unknown
Altitude
Unknown
Speed
Unknown
Apparent Right ascension
Unknown
Apparent Declination
Unknown
Sunlit
N/A
Visualization observer readout
Local Sidereal Time
21:36:20
Azimuth
Unknown
Elevation
Unknown
Doppler factor
Unknown
Orbital elements
Apogee altitude
1,003.547 km
Perigee altitude
958.308 km
Semi-major axis
7,359.065 km
Eccentricity
0.00307
Inclination
82.953°
RAAN
117.2293°
Arg. of periapsis
323.6947°
True anomaly
36.42103°
Mean anomaly
36.2123°
Eccentric anomaly
36.3166°
Mean motion
3.43803 °/min
Orbital period
104.71 mins
BSTAR
0.00019934
Loading maneuver chart data...
Computing Atmospheric mass density...
Loading historical data...
Loading historical data...
Loading historical data...
Loading historical data...
Loading historical data...
Loading historical data...
Loading historical data...
Other satellites on launch #109 in the year 1973 (1973-12-29 UTC)

Documentation

Showing up to 5 results
|